EW3117 Weather Reports


Display with metric or nautical units.
time (UTC)temp
F
wind
direction
speed
MPH
gust
MPH
rain 1hr
in
rain 24hr
in
rain mn
in
humidity
%
barometer
mb
20260506170020 67 210 1.0 5.0 0.00 0.00 0.00 62 1020.7
20260506164525 66 360 1.0 4.0 0.00 0.00 0.00 64 1020.8
20260506163025 65 13 1.0 4.0 0.00 0.00 0.00 66 1020.9
20260506161510 64 224 0.0 4.0 0.00 0.00 0.00 66 1020.9
20260506160018 63 248 1.0 2.0 0.00 0.00 0.00 69 1021.0
20260506154505 62 52 1.0 4.0 0.00 0.00 0.00 72 1021.0
20260506153004 60 4 1.0 4.0 0.00 0.00 0.00 73 1021.1
20260506151511 58 207 0.0 3.0 0.00 0.00 0.00 78 1021.3
20260506150012 56 164 0.0 2.0 0.00 0.00 0.00 80 1021.1
20260506144519 54 188 1.0 3.0 0.00 0.00 0.00 85 1021.2
20260506143006 52 224 0.0 1.0 0.00 0.00 0.00 89 1021.1
20260506141508 50 190 0.0 0.0 0.00 0.00 0.00 90 1021.1
20260506140018 49 190 0.0 1.0 0.00 0.00 0.00 90 1020.9
20260506134520 49 190 0.0 2.0 0.00 0.00 0.00 89 1020.7
20260506133028 49 190 0.0 1.0 0.00 0.00 0.00 89 1020.5
20260506131506 49 190 0.0 1.0 0.00 0.00 0.00 89 1020.4
20260506130009 49 190 0.0 1.0 0.00 0.00 0.00 88 1020.3
20260506124516 49 202 0.0 2.0 0.00 0.00 0.00 88 1020.2
20260506123018 49 190 0.0 2.0 0.00 0.00 0.00 88 1020.1
20260506121521 49 200 1.0 4.0 0.00 0.00 0.00 88 1020.1
20260506120026 50 198 1.0 3.0 0.00 0.00 0.00 87 1020.0
20260506114529 50 210 1.0 4.0 0.00 0.00 0.00 86 1020.0
20260506113020 50 160 0.0 1.0 0.00 0.00 0.00 86 1019.9
20260506111521 51 160 0.0 2.0 0.00 0.00 0.00 86 1019.8
20260506110024 51 176 0.0 2.0 0.00 0.00 0.00 86 1019.7
20260506104529 51 176 0.0 1.0 0.00 0.00 0.00 86 1019.8
20260506103012 52 176 0.0 0.0 0.00 0.00 0.00 85 1019.7
20260506101519 52 176 0.0 1.0 0.00 0.00 0.00 84 1019.6
20260506100024 53 186 0.0 3.0 0.00 0.00 0.00 83 1019.6
20260506094524 53 152 0.0 3.0 0.00 0.00 0.00 84 1019.7
20260506093026 53 182 0.0 4.0 0.00 0.00 0.00 83 1019.7
20260506091513 53 207 1.0 4.0 0.00 0.00 0.00 84 1019.8
20260506090020 53 191 1.0 4.0 0.00 0.00 0.00 84 1019.8
20260506084524 53 171 0.0 1.0 0.00 0.00 0.00 85 1019.6
20260506083024 53 197 0.0 2.0 0.00 0.00 0.00 85 1019.7
20260506081526 53 212 0.0 3.0 0.00 0.00 0.00 86 1019.8
20260506073022 51 229 1.0 4.0 0.00 0.00 0.00 86 1019.3
20260506071528 51 224 0.0 3.0 0.00 0.00 0.00 86 1019.3
20260506061524 52 208 1.0 3.0 0.00 0.00 0.00 85 1018.7
20260506044536 55 75 0.0 4.0 0.00 0.00 0.00 81 1018.3
20260506043026 55 56 0.0 2.0 0.00 0.00 0.00 80 1018.0
20260506041522 56 42 2.0 5.0 0.00 0.00 0.00 79 1018.0
20260506040023 56 58 1.0 4.0 0.00 0.00 0.00 78 1017.8
20260506034504 57 59 1.0 5.0 0.00 0.00 0.00 77 1017.5
20260506033007 57 1 0.0 3.0 0.00 0.00 0.00 76 1017.2
20260506031515 57 1 1.0 5.0 0.00 0.00 0.00 75 1016.9
20260506030019 58 318 1.0 6.0 0.00 0.00 0.00 74 1016.7
20260506024517 59 245 2.0 6.0 0.00 0.00 0.00 73 1016.6
20260506023008 59 265 3.0 9.0 0.00 0.00 0.00 73 1016.5
20260506021504 59 337 1.0 11.0 0.00 0.00 0.00 73 1016.6
20260506020008 60 347 5.0 11.0 0.00 0.00 0.00 73 1016.6
20260506014506 60 339 2.0 8.0 0.00 0.00 0.00 72 1016.7
20260506013008 61 321 2.0 7.0 0.00 0.00 0.00 71 1016.6
20260506011508 61 290 2.0 7.0 0.00 0.00 0.00 70 1016.6
20260506010007 62 1 3.0 8.0 0.00 0.00 0.00 69 1016.6
20260506004519 62 331 3.0 7.0 0.00 0.00 0.00 69 1016.5
20260506003008 62 11 3.0 8.0 0.00 0.00 0.00 68 1016.5
20260506001509 62 313 4.0 7.0 0.00 0.00 0.00 68 1016.4
20260506000010 62 344 4.0 7.0 0.00 0.00 0.00 67 1016.2
20260505234508 62 330 4.0 9.0 0.00 0.00 0.00 67 1016.3
20260505233009 62 354 2.0 9.0 0.00 0.00 0.00 67 1016.2
20260505231522 63 330 3.0 8.0 0.00 0.00 0.00 66 1016.2
20260505230008 63 23 1.0 5.0 0.00 0.00 0.00 64 1016.2
20260505224517 63 303 2.0 5.0 0.00 0.00 0.00 64 1016.4
20260505223009 63 325 2.0 6.0 0.00 0.00 0.00 65 1016.7
20260505221512 62 1 5.0 9.0 0.00 0.00 0.00 64 1016.7
20260505220011 62 224 3.0 8.0 0.00 0.00 0.00 65 1016.7
20260505214513 62 346 4.0 9.0 0.00 0.00 0.00 66 1016.7
20260505213011 62 293 2.0 10.0 0.00 0.00 0.00 65 1016.8
20260505211512 62 360 2.0 9.0 0.00 0.00 0.00 66 1016.8
20260505210007 61 350 3.0 10.0 0.00 0.00 0.00 67 1016.9
20260505204514 61 316 3.0 9.0 0.00 0.00 0.00 67 1016.9
20260505203023 61 307 4.0 8.0 0.00 0.00 0.00 66 1017.0
20260505201511 61 354 4.0 8.0 0.00 0.00 0.00 64 1016.8
20260505200016 62 320 3.0 6.0 0.00 0.00 0.00 63 1016.9
20260505194511 62 307 2.0 6.0 0.00 0.00 0.00 63 1017.0
20260505193014 62 341 3.0 5.0 0.00 0.00 0.00 64 1017.0
20260505191516 62 236 1.0 5.0 0.00 0.00 0.00 64 1017.0
20260505190028 62 230 1.0 6.0 0.00 0.00 0.00 64 1017.0
20260505184526 61 162 2.0 6.0 0.00 0.00 0.00 67 1016.9
20260505183010 59 241 1.0 4.0 0.00 0.00 0.00 72 1017.0
20260505181514 59 244 1.0 5.0 0.00 0.00 0.00 74 1017.0
20260505180021 58 271 1.0 3.0 0.00 0.00 0.00 73 1016.9
20260505174518 57 15 3.0 7.0 0.00 0.00 0.00 72 1016.8
20260505173016 57 18 2.0 6.0 0.00 0.00 0.00 71 1016.6
20260505171524 57 19 2.0 5.0 0.00 0.00 0.00 70 1016.5